Location: Domont
(49.0278°N, 2.3264°E)
Time: 01:15:38
(UTC+00:00)

Orbus 7S? - Pass Details

Date: 05 June 2022
Orbit: 340 x 6374 km, 56.9° (Epoch: 04 July)

Event Time Altitude Azimuth Distance (km) Brightness Sun altitude
Rises 02:39:13 0° 279° (W) 6,245 8.4 -9.0°
Reaches altitude 10° 02:42:18 10° 282° (WNW) 5,758 8.2 -8.7°
Maximum altitude 03:04:18 73° 10° (N) 5,347 8.4 -6.3°
Drops below altitude 10° 03:46:55 10° 100° (E) 9,713 10.3 -1.1°
Sets 03:54:18 0° 103° (ESE) 10,367 10.4 -0.1°
